Year,Month,Day,Hour,Minute,Value (Times are PST for temperature in C)
2009,07,30,00,00,24.20
2009,07,30,00,01,24.10
2009,07,30,00,02,24.10
2009,07,30,00,03,24.10
2009,07,30,00,04,24.10
2009,07,30,00,05,24.10
2009,07,30,00,06,24.10
2009,07,30,00,07,24.00
2009,07,30,00,08,24.00
2009,07,30,00,09,24.00
2009,07,30,00,10,24.00
2009,07,30,00,11,24.00
2009,07,30,00,12,24.00
2009,07,30,00,13,24.00
2009,07,30,00,14,23.90
2009,07,30,00,15,23.90
2009,07,30,00,16,23.90
2009,07,30,00,17,23.90
2009,07,30,00,18,23.80
2009,07,30,00,19,23.80
2009,07,30,00,20,23.80
2009,07,30,00,21,23.80
2009,07,30,00,22,23.80
2009,07,30,00,23,23.70
2009,07,30,00,24,23.70
2009,07,30,00,25,23.70
2009,07,30,00,26,23.70
2009,07,30,00,27,23.70
2009,07,30,00,28,23.60
2009,07,30,00,29,23.60
2009,07,30,00,30,23.60
2009,07,30,00,31,23.60
2009,07,30,00,32,23.60
2009,07,30,00,33,23.60
2009,07,30,00,34,23.60
2009,07,30,00,35,23.60
2009,07,30,00,36,23.50
2009,07,30,00,37,23.50
2009,07,30,00,38,23.50
2009,07,30,00,39,23.50
2009,07,30,00,40,23.50
2009,07,30,00,41,23.50
2009,07,30,00,42,23.50
2009,07,30,00,43,23.60
2009,07,30,00,44,23.60
2009,07,30,00,45,23.60
2009,07,30,00,46,23.60
2009,07,30,00,47,23.60
2009,07,30,00,48,23.60
2009,07,30,00,49,23.50
2009,07,30,00,50,23.50
2009,07,30,00,51,23.50
2009,07,30,00,52,23.50
2009,07,30,00,53,23.50
2009,07,30,00,54,23.40
2009,07,30,00,55,23.40
2009,07,30,00,56,23.40
2009,07,30,00,57,23.40
2009,07,30,00,58,23.30
2009,07,30,00,59,23.30
2009,07,30,01,00,23.30
2009,07,30,01,01,23.30
2009,07,30,01,02,23.20
2009,07,30,01,03,23.20
2009,07,30,01,04,23.20
2009,07,30,01,05,23.20
2009,07,30,01,06,23.20
2009,07,30,01,07,23.10
2009,07,30,01,08,23.10
2009,07,30,01,09,23.10
2009,07,30,01,10,23.10
2009,07,30,01,11,23.10
2009,07,30,01,12,23.10
2009,07,30,01,13,23.00
2009,07,30,01,14,23.00
2009,07,30,01,15,23.00
2009,07,30,01,16,23.00
2009,07,30,01,17,23.00
2009,07,30,01,18,23.00
2009,07,30,01,19,23.00
2009,07,30,01,20,22.90
2009,07,30,01,21,22.90
2009,07,30,01,22,22.90
2009,07,30,01,23,22.90
2009,07,30,01,24,22.90
2009,07,30,01,25,22.80
2009,07,30,01,26,22.80
2009,07,30,01,27,22.80
2009,07,30,01,28,22.80
2009,07,30,01,29,22.70
2009,07,30,01,30,22.70
2009,07,30,01,31,22.70
2009,07,30,01,32,22.60
2009,07,30,01,33,22.60
2009,07,30,01,34,22.60
2009,07,30,01,35,22.60
2009,07,30,01,36,22.60
2009,07,30,01,37,22.50
2009,07,30,01,38,22.50
2009,07,30,01,39,22.50
2009,07,30,01,40,22.50
2009,07,30,01,41,22.50
2009,07,30,01,42,22.40
2009,07,30,01,43,22.40
2009,07,30,01,44,22.40
2009,07,30,01,45,22.40
2009,07,30,01,46,22.40
2009,07,30,01,47,22.40
2009,07,30,01,48,22.40
2009,07,30,01,49,22.40
2009,07,30,01,50,22.40
2009,07,30,01,51,22.40
2009,07,30,01,52,22.40
2009,07,30,01,53,22.40
2009,07,30,01,54,22.40
2009,07,30,01,55,22.40
2009,07,30,01,56,22.40
2009,07,30,01,57,22.40
2009,07,30,01,58,22.40
2009,07,30,01,59,22.40
2009,07,30,02,00,22.50
2009,07,30,02,01,22.50
2009,07,30,02,02,22.60
2009,07,30,02,03,22.70
2009,07,30,02,04,22.80
2009,07,30,02,05,22.80
2009,07,30,02,06,22.90
2009,07,30,02,07,22.90
2009,07,30,02,08,23.00
2009,07,30,02,09,23.00
2009,07,30,02,10,23.10
2009,07,30,02,11,23.10
2009,07,30,02,12,23.10
2009,07,30,02,13,23.00
2009,07,30,02,14,23.00
2009,07,30,02,15,23.00
2009,07,30,02,16,23.00
2009,07,30,02,17,23.00
2009,07,30,02,18,22.90
2009,07,30,02,19,22.90
2009,07,30,02,20,22.90
2009,07,30,02,21,22.90
2009,07,30,02,22,22.80
2009,07,30,02,23,22.80
2009,07,30,02,24,22.80
2009,07,30,02,25,22.70
2009,07,30,02,26,22.70
2009,07,30,02,27,22.70
2009,07,30,02,28,22.60
2009,07,30,02,29,22.60
2009,07,30,02,30,22.50
2009,07,30,02,31,22.50
2009,07,30,02,32,22.40
2009,07,30,02,33,22.40
2009,07,30,02,34,22.40
2009,07,30,02,35,22.30
2009,07,30,02,36,22.30
2009,07,30,02,37,22.30
2009,07,30,02,38,22.30
2009,07,30,02,39,22.20
2009,07,30,02,40,22.20
2009,07,30,02,41,22.20
2009,07,30,02,42,22.20
2009,07,30,02,43,22.10
2009,07,30,02,44,22.10
2009,07,30,02,45,22.10
2009,07,30,02,46,22.10
2009,07,30,02,47,22.00
2009,07,30,02,48,22.00
2009,07,30,02,49,22.00
2009,07,30,02,50,21.90
2009,07,30,02,51,21.90
2009,07,30,02,52,21.90
2009,07,30,02,53,21.90
2009,07,30,02,54,21.90
2009,07,30,02,55,21.90
2009,07,30,02,56,21.80
2009,07,30,02,57,21.80
2009,07,30,02,58,21.80
2009,07,30,02,59,21.80
2009,07,30,03,00,21.80
2009,07,30,03,01,21.80
2009,07,30,03,02,21.80
2009,07,30,03,03,21.80
2009,07,30,03,04,21.70
2009,07,30,03,05,21.70
2009,07,30,03,06,21.70
2009,07,30,03,07,21.70
2009,07,30,03,08,21.70
2009,07,30,03,09,21.70
2009,07,30,03,10,21.60
2009,07,30,03,11,21.60
2009,07,30,03,12,21.60
2009,07,30,03,13,21.60
2009,07,30,03,14,21.60
2009,07,30,03,15,21.50
2009,07,30,03,16,21.50
2009,07,30,03,17,21.50
2009,07,30,03,18,21.50
2009,07,30,03,19,21.40
2009,07,30,03,20,21.40
2009,07,30,03,21,21.40
2009,07,30,03,22,21.40
2009,07,30,03,23,21.40
2009,07,30,03,24,21.30
2009,07,30,03,25,21.30
2009,07,30,03,26,21.30
2009,07,30,03,27,21.30
2009,07,30,03,28,21.30
2009,07,30,03,29,21.30
2009,07,30,03,30,21.30
2009,07,30,03,31,21.20
2009,07,30,03,32,21.20
2009,07,30,03,33,21.20
2009,07,30,03,34,21.20
2009,07,30,03,35,21.10
2009,07,30,03,36,21.10
2009,07,30,03,37,21.10
2009,07,30,03,38,21.10
2009,07,30,03,39,21.10
2009,07,30,03,40,21.10
2009,07,30,03,41,21.00
2009,07,30,03,42,21.00
2009,07,30,03,43,21.00
2009,07,30,03,44,21.00
2009,07,30,03,45,21.00
2009,07,30,03,46,21.00
2009,07,30,03,47,21.00
2009,07,30,03,48,21.10
2009,07,30,03,49,21.10
2009,07,30,03,50,21.10
2009,07,30,03,51,21.20
2009,07,30,03,52,21.20
2009,07,30,03,53,21.30
2009,07,30,03,54,21.30
2009,07,30,03,55,21.30
2009,07,30,03,56,21.30
2009,07,30,03,57,21.40
2009,07,30,03,58,21.40
2009,07,30,03,59,21.40
2009,07,30,04,00,21.40
2009,07,30,04,01,21.40
2009,07,30,04,02,21.40
2009,07,30,04,03,21.50
2009,07,30,04,04,21.50
2009,07,30,04,05,21.50
2009,07,30,04,06,21.50
2009,07,30,04,07,21.50
2009,07,30,04,08,21.50
2009,07,30,04,09,21.50
2009,07,30,04,10,21.50
2009,07,30,04,11,21.50
2009,07,30,04,12,21.50
2009,07,30,04,13,21.50
2009,07,30,04,14,21.50
2009,07,30,04,15,21.50
2009,07,30,04,16,21.50
2009,07,30,04,17,21.40
2009,07,30,04,18,21.40
2009,07,30,04,19,21.40
2009,07,30,04,20,21.40
2009,07,30,04,21,21.40
2009,07,30,04,22,21.30
2009,07,30,04,23,21.30
2009,07,30,04,24,21.30
2009,07,30,04,25,21.30
2009,07,30,04,26,21.30
2009,07,30,04,27,21.20
2009,07,30,04,28,21.20
2009,07,30,04,29,21.20
2009,07,30,04,30,21.20
2009,07,30,04,31,21.20
2009,07,30,04,32,21.20
2009,07,30,04,33,21.20
2009,07,30,04,34,21.20
2009,07,30,04,35,21.20
2009,07,30,04,36,21.20
2009,07,30,04,37,21.20
2009,07,30,04,38,21.10
2009,07,30,04,39,21.10
2009,07,30,04,40,21.10
2009,07,30,04,41,21.10
2009,07,30,04,42,21.10
2009,07,30,04,43,21.00
2009,07,30,04,44,21.00
2009,07,30,04,45,20.90
2009,07,30,04,46,20.90
2009,07,30,04,47,20.90
2009,07,30,04,48,20.90
2009,07,30,04,49,20.90
2009,07,30,04,50,20.80
2009,07,30,04,51,20.80
2009,07,30,04,52,20.80
2009,07,30,04,53,20.80
2009,07,30,04,54,20.80
2009,07,30,04,55,20.80
2009,07,30,04,56,20.70
2009,07,30,04,57,20.70
2009,07,30,04,58,20.70
2009,07,30,04,59,20.70
2009,07,30,05,00,20.60
2009,07,30,05,01,20.60
2009,07,30,05,02,20.60
2009,07,30,05,03,20.50
2009,07,30,05,04,20.50
2009,07,30,05,05,20.50
2009,07,30,05,06,20.40
2009,07,30,05,07,20.40
2009,07,30,05,08,20.40
2009,07,30,05,09,20.40
2009,07,30,05,10,20.30
2009,07,30,05,11,20.30
2009,07,30,05,12,20.30
2009,07,30,05,13,20.30
2009,07,30,05,14,20.30
2009,07,30,05,15,20.30
2009,07,30,05,16,20.20
2009,07,30,05,17,20.20
2009,07,30,05,18,20.20
2009,07,30,05,19,20.20
2009,07,30,05,20,20.10
2009,07,30,05,21,20.10
2009,07,30,05,22,20.10
2009,07,30,05,23,20.10
2009,07,30,05,24,20.00
2009,07,30,05,25,20.00
2009,07,30,05,26,20.00
2009,07,30,05,27,20.00
2009,07,30,05,28,19.90
2009,07,30,05,29,19.90
2009,07,30,05,30,19.90
2009,07,30,05,31,19.90
2009,07,30,05,32,19.90
2009,07,30,05,33,19.80
2009,07,30,05,34,19.80
2009,07,30,05,35,19.80
2009,07,30,05,36,19.80
2009,07,30,05,37,19.80
2009,07,30,05,38,19.70
2009,07,30,05,39,19.70
2009,07,30,05,40,19.70
2009,07,30,05,41,19.70
2009,07,30,05,42,19.70
2009,07,30,05,43,19.70
2009,07,30,05,44,19.70
2009,07,30,05,45,19.70
2009,07,30,05,46,19.70
2009,07,30,05,47,19.70
2009,07,30,05,48,19.70
2009,07,30,05,49,19.70
2009,07,30,05,50,19.70
2009,07,30,05,51,19.70
2009,07,30,05,52,19.60
2009,07,30,05,53,19.60
2009,07,30,05,54,19.60
2009,07,30,05,55,19.60
2009,07,30,05,56,19.60
2009,07,30,05,57,19.60
2009,07,30,05,58,19.60
2009,07,30,05,59,19.60
2009,07,30,06,00,19.60
2009,07,30,06,01,19.60
2009,07,30,06,02,19.60
2009,07,30,06,03,19.60
2009,07,30,06,04,19.60
2009,07,30,06,05,19.60
2009,07,30,06,06,19.60
2009,07,30,06,07,19.60
2009,07,30,06,08,19.60
2009,07,30,06,09,19.60
2009,07,30,06,10,19.60
2009,07,30,06,11,19.60
2009,07,30,06,12,19.60
2009,07,30,06,13,19.60
2009,07,30,06,14,19.60
2009,07,30,06,15,19.60
2009,07,30,06,16,19.60
2009,07,30,06,17,19.70
2009,07,30,06,18,19.70
2009,07,30,06,19,19.70
2009,07,30,06,20,19.70
2009,07,30,06,21,19.70
2009,07,30,06,22,19.60
2009,07,30,06,23,19.60
2009,07,30,06,24,19.70
2009,07,30,06,25,19.60
2009,07,30,06,26,19.60
2009,07,30,06,27,19.60
2009,07,30,06,28,19.60
2009,07,30,06,29,19.60
2009,07,30,06,30,19.60
2009,07,30,06,31,19.60
2009,07,30,06,32,19.60
2009,07,30,06,33,19.60
2009,07,30,06,34,19.60
2009,07,30,06,35,19.60
2009,07,30,06,36,19.70
2009,07,30,06,37,19.70
2009,07,30,06,38,19.70
2009,07,30,06,39,19.70
2009,07,30,06,40,19.70
2009,07,30,06,41,19.70
2009,07,30,06,42,19.70
2009,07,30,06,43,19.70
2009,07,30,06,44,19.70
2009,07,30,06,45,19.70
2009,07,30,06,46,19.70
2009,07,30,06,47,19.80
2009,07,30,06,48,19.80
2009,07,30,06,49,19.80
2009,07,30,06,50,19.80
2009,07,30,06,51,19.80
2009,07,30,06,52,19.80
2009,07,30,06,53,19.80
2009,07,30,06,54,19.80
2009,07,30,06,55,19.80
2009,07,30,06,56,19.80
2009,07,30,06,57,19.90
2009,07,30,06,58,19.90
2009,07,30,06,59,19.90
2009,07,30,07,00,19.90
2009,07,30,07,01,20.00
2009,07,30,07,02,20.00
2009,07,30,07,03,20.00
2009,07,30,07,04,20.10
2009,07,30,07,05,20.10
2009,07,30,07,06,20.10
2009,07,30,07,07,20.20
2009,07,30,07,08,20.20
2009,07,30,07,09,20.20
2009,07,30,07,10,20.30
2009,07,30,07,11,20.30
2009,07,30,07,12,20.40
2009,07,30,07,13,20.50
2009,07,30,07,14,20.50
2009,07,30,07,15,20.60
2009,07,30,07,16,20.70
2009,07,30,07,17,20.80
2009,07,30,07,18,21.00
2009,07,30,07,19,21.10
2009,07,30,07,20,21.20
2009,07,30,07,21,21.30
2009,07,30,07,22,21.30
2009,07,30,07,23,21.40
2009,07,30,07,24,21.50
2009,07,30,07,25,21.50
2009,07,30,07,26,21.60
2009,07,30,07,27,21.60
2009,07,30,07,28,21.60
2009,07,30,07,29,21.70
2009,07,30,07,30,21.70
2009,07,30,07,31,21.70
2009,07,30,07,32,21.80
2009,07,30,07,33,21.80
2009,07,30,07,34,21.80
2009,07,30,07,35,21.90
2009,07,30,07,36,22.00
2009,07,30,07,37,22.10
2009,07,30,07,38,22.10
2009,07,30,07,39,22.20
2009,07,30,07,40,22.20
2009,07,30,07,41,22.30
2009,07,30,07,42,22.30
2009,07,30,07,43,22.40
2009,07,30,07,44,22.40
2009,07,30,07,45,22.50
2009,07,30,07,46,22.60
2009,07,30,07,47,22.70
2009,07,30,07,48,22.70
2009,07,30,07,49,22.80
2009,07,30,07,50,22.90
2009,07,30,07,51,23.00
2009,07,30,07,52,23.00
2009,07,30,07,53,23.10
2009,07,30,07,54,23.20
2009,07,30,07,55,23.30
2009,07,30,07,56,23.30
2009,07,30,07,57,23.40
2009,07,30,07,58,23.40
2009,07,30,07,59,23.50
2009,07,30,08,00,23.50
2009,07,30,08,01,23.60
2009,07,30,08,02,23.70
2009,07,30,08,03,23.70
2009,07,30,08,04,23.80
2009,07,30,08,05,23.80
2009,07,30,08,06,23.80
2009,07,30,08,07,23.90
2009,07,30,08,08,23.90
2009,07,30,08,09,24.00
2009,07,30,08,10,24.00
2009,07,30,08,11,24.10
2009,07,30,08,12,24.10
2009,07,30,08,13,24.10
2009,07,30,08,14,24.20
2009,07,30,08,15,24.30
2009,07,30,08,16,24.30
2009,07,30,08,17,24.50
2009,07,30,08,18,24.50
2009,07,30,08,19,24.60
2009,07,30,08,20,24.70
2009,07,30,08,21,24.80
2009,07,30,08,22,24.90
2009,07,30,08,23,25.00
2009,07,30,08,24,25.00
2009,07,30,08,25,25.10
2009,07,30,08,26,25.20
2009,07,30,08,27,25.30
2009,07,30,08,28,25.30
2009,07,30,08,29,25.40
2009,07,30,08,30,25.40
2009,07,30,08,31,25.50
2009,07,30,08,32,25.50
2009,07,30,08,33,25.60
2009,07,30,08,34,25.70
2009,07,30,08,35,25.80
2009,07,30,08,36,25.90
2009,07,30,08,37,25.90
2009,07,30,08,38,26.00
2009,07,30,08,39,26.10
2009,07,30,08,40,26.20
2009,07,30,08,41,26.20
2009,07,30,08,42,26.30
2009,07,30,08,43,26.30
2009,07,30,08,44,26.40
2009,07,30,08,45,26.40
2009,07,30,08,46,26.50
2009,07,30,08,47,26.50
2009,07,30,08,48,26.50
2009,07,30,08,49,26.60
2009,07,30,08,50,26.60
2009,07,30,08,51,26.60
2009,07,30,08,52,26.60
2009,07,30,08,53,26.60
2009,07,30,08,54,26.60
2009,07,30,08,55,26.60
2009,07,30,08,56,26.70
2009,07,30,08,57,26.70
2009,07,30,08,58,26.80
2009,07,30,08,59,26.80
2009,07,30,09,00,26.90
2009,07,30,09,01,27.00
2009,07,30,09,02,27.20
2009,07,30,09,03,27.20
2009,07,30,09,04,27.30
2009,07,30,09,05,27.30
2009,07,30,09,06,27.30
2009,07,30,09,07,27.30
2009,07,30,09,08,27.30
2009,07,30,09,09,27.40
2009,07,30,09,10,27.40
2009,07,30,09,11,27.40
2009,07,30,09,12,27.40
2009,07,30,09,13,27.50
2009,07,30,09,14,27.50
2009,07,30,09,15,27.60
2009,07,30,09,16,27.60
2009,07,30,09,17,27.50
2009,07,30,09,18,27.40
2009,07,30,09,19,27.40
2009,07,30,09,20,27.40
2009,07,30,09,21,27.40
2009,07,30,09,22,27.40
2009,07,30,09,23,27.50
2009,07,30,09,24,27.60
2009,07,30,09,25,27.60
2009,07,30,09,26,27.60
2009,07,30,09,27,27.60
2009,07,30,09,28,27.60
2009,07,30,09,29,27.60
2009,07,30,09,30,27.60
2009,07,30,09,31,27.60
2009,07,30,09,32,27.60
2009,07,30,09,33,27.60
2009,07,30,09,34,27.50
2009,07,30,09,35,27.50
2009,07,30,09,36,27.50
2009,07,30,09,37,27.40
2009,07,30,09,38,27.40
2009,07,30,09,39,27.40
2009,07,30,09,40,27.40
2009,07,30,09,41,27.40
2009,07,30,09,42,27.40
2009,07,30,09,43,27.50
2009,07,30,09,44,27.50
2009,07,30,09,45,27.50
2009,07,30,09,46,27.50
2009,07,30,09,47,27.50
2009,07,30,09,48,27.50
2009,07,30,09,49,27.60
2009,07,30,09,50,27.50
2009,07,30,09,51,27.50
2009,07,30,09,52,27.50
2009,07,30,09,53,27.40
2009,07,30,09,54,27.40
2009,07,30,09,55,27.50
2009,07,30,09,56,27.40
2009,07,30,09,57,27.40
2009,07,30,09,58,27.40
2009,07,30,09,59,27.40
2009,07,30,10,00,27.50
2009,07,30,10,01,27.40
2009,07,30,10,02,27.40
2009,07,30,10,03,27.50
2009,07,30,10,04,27.50
2009,07,30,10,05,27.50
2009,07,30,10,06,27.60
2009,07,30,10,07,27.60
2009,07,30,10,08,27.70
2009,07,30,10,09,27.70
2009,07,30,10,10,27.70
2009,07,30,10,11,27.80
2009,07,30,10,12,27.80
2009,07,30,10,13,27.80
2009,07,30,10,14,27.70
2009,07,30,10,15,27.70
2009,07,30,10,16,27.70
2009,07,30,10,17,27.70
2009,07,30,10,18,27.80
2009,07,30,10,19,27.80
2009,07,30,10,20,27.70
2009,07,30,10,21,27.70
2009,07,30,10,22,27.70
2009,07,30,10,23,27.70
2009,07,30,10,24,27.80
2009,07,30,10,25,27.80
2009,07,30,10,26,27.70
2009,07,30,10,27,27.60
2009,07,30,10,28,27.50
2009,07,30,10,29,27.40
2009,07,30,10,30,27.20
2009,07,30,10,31,27.10
2009,07,30,10,32,27.10
2009,07,30,10,33,27.10
2009,07,30,10,34,27.00
2009,07,30,10,35,27.00
2009,07,30,10,36,26.90
2009,07,30,10,37,26.90
2009,07,30,10,38,26.80
2009,07,30,10,39,26.80
2009,07,30,10,40,26.80
2009,07,30,10,41,26.70
2009,07,30,10,42,26.70
2009,07,30,10,43,26.70
2009,07,30,10,44,26.60
2009,07,30,10,45,26.70
2009,07,30,10,46,26.60
2009,07,30,10,47,26.60
2009,07,30,10,48,26.60
2009,07,30,10,49,26.70
2009,07,30,10,50,26.70
2009,07,30,10,51,26.70
2009,07,30,10,52,26.70
2009,07,30,10,53,26.80
2009,07,30,10,54,26.80
2009,07,30,10,55,26.80
2009,07,30,10,56,26.80
2009,07,30,10,57,26.80
2009,07,30,10,58,26.80
2009,07,30,10,59,26.90
2009,07,30,11,00,27.00
2009,07,30,11,01,27.10
2009,07,30,11,02,27.20
2009,07,30,11,03,27.20
2009,07,30,11,04,27.20
2009,07,30,11,05,27.30
2009,07,30,11,06,27.20
2009,07,30,11,07,27.10
2009,07,30,11,08,27.10
2009,07,30,11,09,27.10
2009,07,30,11,10,27.10
2009,07,30,11,11,27.10
2009,07,30,11,12,27.10
2009,07,30,11,13,27.10
2009,07,30,11,14,27.10
2009,07,30,11,15,27.10
2009,07,30,11,16,27.20
2009,07,30,11,17,27.20
2009,07,30,11,18,27.30
2009,07,30,11,19,27.30
2009,07,30,11,20,27.40
2009,07,30,11,21,27.50
2009,07,30,11,22,27.50
2009,07,30,11,23,27.50
2009,07,30,11,24,27.50
2009,07,30,11,25,27.50
2009,07,30,11,26,27.60
2009,07,30,11,27,27.60
2009,07,30,11,28,27.60
2009,07,30,11,29,27.70
2009,07,30,11,30,27.70
2009,07,30,11,31,27.70
2009,07,30,11,32,27.70
2009,07,30,11,33,27.70
2009,07,30,11,34,27.70
2009,07,30,11,35,27.80
2009,07,30,11,36,27.80
2009,07,30,11,37,27.80
2009,07,30,11,38,27.90
2009,07,30,11,39,27.90
2009,07,30,11,40,28.00
2009,07,30,11,41,27.90
2009,07,30,11,42,27.90
2009,07,30,11,43,27.90
2009,07,30,11,44,28.00
2009,07,30,11,45,28.10
2009,07,30,11,46,28.20
2009,07,30,11,47,28.20
2009,07,30,11,48,28.20
2009,07,30,11,49,28.30
2009,07,30,11,50,28.40
2009,07,30,11,51,28.40
2009,07,30,11,52,28.40
2009,07,30,11,53,28.30
2009,07,30,11,54,28.30
2009,07,30,11,55,28.30
2009,07,30,11,56,28.30
2009,07,30,11,57,28.40
2009,07,30,11,58,28.40
2009,07,30,11,59,28.50
2009,07,30,12,00,28.60
2009,07,30,12,01,28.60
2009,07,30,12,02,28.60
2009,07,30,12,03,28.70
2009,07,30,12,04,28.80
2009,07,30,12,05,28.90
2009,07,30,12,06,29.00
2009,07,30,12,07,29.10
2009,07,30,12,08,29.20
2009,07,30,12,09,29.30
2009,07,30,12,10,29.30
2009,07,30,12,11,29.40
2009,07,30,12,12,29.40
2009,07,30,12,13,29.50
2009,07,30,12,14,29.50
2009,07,30,12,15,29.60
2009,07,30,12,16,29.60
2009,07,30,12,17,29.60
2009,07,30,12,18,29.70
2009,07,30,12,19,29.70
2009,07,30,12,20,29.80
2009,07,30,12,21,29.80
2009,07,30,12,22,29.80
2009,07,30,12,23,29.80
2009,07,30,12,24,29.80
2009,07,30,12,25,29.90
2009,07,30,12,26,29.90
2009,07,30,12,27,30.00
2009,07,30,12,28,30.00
2009,07,30,12,29,30.10
2009,07,30,12,30,30.10
2009,07,30,12,31,30.10
2009,07,30,12,32,30.10
2009,07,30,12,33,30.20
2009,07,30,12,34,30.40
2009,07,30,12,35,30.50
2009,07,30,12,36,30.60
2009,07,30,12,37,30.60
2009,07,30,12,38,30.70
2009,07,30,12,39,30.80
2009,07,30,12,40,30.80
2009,07,30,12,41,30.80
2009,07,30,12,42,30.90
2009,07,30,12,43,31.00
2009,07,30,12,44,31.10
2009,07,30,12,45,31.20
2009,07,30,12,46,31.30
2009,07,30,12,47,31.30
2009,07,30,12,48,31.30
2009,07,30,12,49,31.40
2009,07,30,12,50,31.40
2009,07,30,12,51,31.50
2009,07,30,12,52,31.50
2009,07,30,12,53,31.50
2009,07,30,12,54,31.40
2009,07,30,12,55,31.30
2009,07,30,12,56,31.30
2009,07,30,12,57,31.40
2009,07,30,12,58,31.40
2009,07,30,12,59,31.50
2009,07,30,13,00,31.40
2009,07,30,13,01,31.50
2009,07,30,13,02,31.50
2009,07,30,13,03,31.60
2009,07,30,13,04,31.60
2009,07,30,13,05,31.50
2009,07,30,13,06,31.40
2009,07,30,13,07,31.30
2009,07,30,13,08,31.20
2009,07,30,13,09,31.20
2009,07,30,13,10,31.20
2009,07,30,13,11,31.20
2009,07,30,13,12,31.20
2009,07,30,13,13,31.20
2009,07,30,13,14,31.30
2009,07,30,13,15,31.30
2009,07,30,13,16,31.40
2009,07,30,13,17,31.40
2009,07,30,13,18,31.40
2009,07,30,13,19,31.30
2009,07,30,13,20,31.10
2009,07,30,13,21,31.00
2009,07,30,13,22,31.00
2009,07,30,13,23,31.00
2009,07,30,13,24,30.80
2009,07,30,13,25,30.70
2009,07,30,13,26,30.60
2009,07,30,13,27,30.50
2009,07,30,13,28,30.50
2009,07,30,13,29,30.50
2009,07,30,13,30,30.50
2009,07,30,13,31,30.50
2009,07,30,13,32,30.60
2009,07,30,13,33,30.70
2009,07,30,13,34,30.80
2009,07,30,13,35,30.80
2009,07,30,13,36,30.80
2009,07,30,13,37,30.90
2009,07,30,13,38,31.00
2009,07,30,13,39,31.10
2009,07,30,13,40,31.00
2009,07,30,13,41,30.90
2009,07,30,13,42,30.80
2009,07,30,13,43,30.70
2009,07,30,13,44,30.70
2009,07,30,13,45,30.70
2009,07,30,13,46,30.80
2009,07,30,13,47,30.80
2009,07,30,13,48,30.80
2009,07,30,13,49,30.90
2009,07,30,13,50,30.90
2009,07,30,13,51,30.90
2009,07,30,13,52,30.80
2009,07,30,13,53,30.90
2009,07,30,13,54,30.90
2009,07,30,13,55,30.80
2009,07,30,13,56,30.80
2009,07,30,13,57,30.70
2009,07,30,13,58,30.70
2009,07,30,13,59,30.70
2009,07,30,14,00,30.80
2009,07,30,14,01,30.90
2009,07,30,14,02,30.80
2009,07,30,14,03,30.90
2009,07,30,14,04,30.90
2009,07,30,14,05,31.00
2009,07,30,14,06,31.00
2009,07,30,14,07,31.10
2009,07,30,14,08,31.10
2009,07,30,14,09,31.00
2009,07,30,14,10,31.00
2009,07,30,14,11,31.00
2009,07,30,14,12,31.00
2009,07,30,14,13,31.00
2009,07,30,14,14,30.90
2009,07,30,14,15,30.90
2009,07,30,14,16,30.90
2009,07,30,14,17,31.00
2009,07,30,14,18,31.00
2009,07,30,14,19,31.00
2009,07,30,14,20,31.10
2009,07,30,14,21,31.20
2009,07,30,14,22,31.20
2009,07,30,14,23,31.20
2009,07,30,14,24,31.10
2009,07,30,14,25,31.10
2009,07,30,14,26,31.00
2009,07,30,14,27,31.00
2009,07,30,14,28,31.10
2009,07,30,14,29,31.20
2009,07,30,14,30,31.20
2009,07,30,14,31,31.30
2009,07,30,14,32,31.40
2009,07,30,14,33,31.50
2009,07,30,14,34,31.60
2009,07,30,14,35,31.70
2009,07,30,14,36,31.70
2009,07,30,14,37,31.60
2009,07,30,14,38,31.50
2009,07,30,14,39,31.40
2009,07,30,14,40,31.50
2009,07,30,14,41,31.60
2009,07,30,14,42,31.60
2009,07,30,14,43,31.60
2009,07,30,14,44,31.70
2009,07,30,14,45,31.70
2009,07,30,14,46,31.70
2009,07,30,14,47,31.70
2009,07,30,14,48,31.70
2009,07,30,14,49,31.70
2009,07,30,14,50,31.70
2009,07,30,14,51,31.70
2009,07,30,14,52,31.70
2009,07,30,14,53,31.80
2009,07,30,14,54,31.80
2009,07,30,14,55,31.90
2009,07,30,14,56,32.00
2009,07,30,14,57,32.10
2009,07,30,14,58,32.10
2009,07,30,14,59,32.20
2009,07,30,15,00,32.30
2009,07,30,15,01,32.30
2009,07,30,15,02,32.40
2009,07,30,15,03,32.70
2009,07,30,15,04,32.80
2009,07,30,15,05,32.80
2009,07,30,15,06,32.80
2009,07,30,15,07,32.80
2009,07,30,15,08,32.80
2009,07,30,15,09,32.80
2009,07,30,15,10,32.80
2009,07,30,15,11,32.80
2009,07,30,15,12,32.90
2009,07,30,15,13,32.80
2009,07,30,15,14,32.80
2009,07,30,15,15,32.70
2009,07,30,15,16,32.70
2009,07,30,15,17,32.70
2009,07,30,15,18,32.70
2009,07,30,15,19,32.70
2009,07,30,15,20,32.50
2009,07,30,15,21,32.40
2009,07,30,15,22,32.30
2009,07,30,15,23,32.20
2009,07,30,15,24,32.20
2009,07,30,15,25,32.20
2009,07,30,15,26,32.20
2009,07,30,15,27,32.30
2009,07,30,15,28,32.30
2009,07,30,15,29,32.20
2009,07,30,15,30,32.30
2009,07,30,15,31,32.30
2009,07,30,15,32,32.40
2009,07,30,15,33,32.50
2009,07,30,15,34,32.60
2009,07,30,15,35,32.80
2009,07,30,15,36,33.00
2009,07,30,15,37,33.10
2009,07,30,15,38,33.10
2009,07,30,15,39,33.20
2009,07,30,15,40,33.40
2009,07,30,15,41,33.50
2009,07,30,15,42,33.70
2009,07,30,15,43,33.80
2009,07,30,15,44,33.80
2009,07,30,15,45,33.80
2009,07,30,15,46,33.80
2009,07,30,15,47,33.70
2009,07,30,15,48,33.70
2009,07,30,15,49,33.70
2009,07,30,15,50,33.80
2009,07,30,15,51,33.90
2009,07,30,15,52,34.00
2009,07,30,15,53,34.10
2009,07,30,15,54,34.20
2009,07,30,15,55,34.30
2009,07,30,15,56,34.50
2009,07,30,15,57,34.60
2009,07,30,15,58,34.70
2009,07,30,15,59,34.70
2009,07,30,16,00,34.70
2009,07,30,16,01,34.60
2009,07,30,16,02,34.60
2009,07,30,16,03,34.60
2009,07,30,16,04,34.60
2009,07,30,16,05,34.50
2009,07,30,16,06,34.50
2009,07,30,16,07,34.50
2009,07,30,16,08,34.60
2009,07,30,16,09,34.60
2009,07,30,16,10,34.70
2009,07,30,16,11,34.70
2009,07,30,16,12,34.60
2009,07,30,16,13,34.60
2009,07,30,16,14,34.50
2009,07,30,16,15,34.60
2009,07,30,16,16,34.60
2009,07,30,16,17,34.70
2009,07,30,16,18,34.70
2009,07,30,16,19,34.70
2009,07,30,16,20,34.80
2009,07,30,16,21,34.90
2009,07,30,16,22,34.80
2009,07,30,16,23,34.80
2009,07,30,16,24,34.70
2009,07,30,16,25,34.70
2009,07,30,16,26,34.70
2009,07,30,16,27,34.60
2009,07,30,16,28,34.60
2009,07,30,16,29,34.70
2009,07,30,16,30,34.70
2009,07,30,16,31,34.70
2009,07,30,16,32,34.80
2009,07,30,16,33,34.80
2009,07,30,16,34,34.70
2009,07,30,16,35,34.70
2009,07,30,16,36,34.60
2009,07,30,16,37,34.50
2009,07,30,16,38,34.60
2009,07,30,16,39,34.70
2009,07,30,16,40,34.70
2009,07,30,16,41,34.60
2009,07,30,16,42,34.60
2009,07,30,16,43,34.60
2009,07,30,16,44,34.50
2009,07,30,16,45,34.50
2009,07,30,16,46,34.60
2009,07,30,16,47,34.50
2009,07,30,16,48,34.50
2009,07,30,16,49,34.60
2009,07,30,16,50,34.60
2009,07,30,16,51,34.60
2009,07,30,16,52,34.70
2009,07,30,16,53,34.70
2009,07,30,16,54,34.70
2009,07,30,16,55,34.60
2009,07,30,16,56,34.60
2009,07,30,16,57,34.60
2009,07,30,16,58,34.60
2009,07,30,16,59,34.60
2009,07,30,17,00,34.60
2009,07,30,17,01,34.50
2009,07,30,17,02,34.40
2009,07,30,17,03,34.40
2009,07,30,17,04,34.30
2009,07,30,17,05,34.30
2009,07,30,17,06,34.30
2009,07,30,17,07,34.30
2009,07,30,17,08,34.30
2009,07,30,17,09,34.30
2009,07,30,17,10,34.30
2009,07,30,17,11,34.30
2009,07,30,17,12,34.30
2009,07,30,17,13,34.30
2009,07,30,17,14,34.30
2009,07,30,17,15,34.30
2009,07,30,17,16,34.30
2009,07,30,17,17,34.30
2009,07,30,17,18,34.30
2009,07,30,17,19,34.40